Meath Environmental Platform

Observations

Time Sensor AQI SAQ Temp °C Hum % Pres Pa CO μg/m³ H₂S μg/m³ NO μg/m³ NO₂ μg/m³ O₃ μg/m³ SO₂ μg/m³ CO₂e PPM VOC PPM PM1 μg/m³ PM2.5 μg/m³ PM4 μg/m³ PM10 μg/m³ TPS µm
Wednesday 12 August 2026
23:22 Trim Market St 3 24.2 53 56,056 0 0 0.99 13.68 69.34 0 1.43 3.85 4.62
23:20 Trim Market St 3 24.2 53 56,090 0 0 0.99 13.73 70.91 0 1.43 4.87 6.8
23:17 Trim Patrick St 3 23.7 56 69,782 0 7.38 0.99 16.45 51.59 6.06 5.43 9.04 9.94
23:16 Trim Patrick St 3 23.7 55 69,768 0 10.62 1.02 22.6 61.27 6.2 6.29 11.39 12.53
23:15 Trim Patrick St 3 23.7 56 69,748 0 9 0.99 22.5 61.17 6.52 3.71 9.07 9.97
23:15 Trim Market St 3 24.3 53 56,120 0 0 0.94 14.73 74.38 0 1.43 3.86 5.34
23:14 Trim Patrick St 3 23.7 56 69,752 0 7.28 0.99 14.5 53.31 6.6 5.43 9.8 10.78
23:14 Trim Market St 3 24.3 53 56,151 0 0 0.96 14.6 69.11 0 1.43 3.86 6.8
23:13 Trim Patrick St 3 23.7 56 69,727 0 8.79 0.98 24.82 51.31 5.72 4.57 9.05 9.96
23:13 Trim Market St 3 24.3 53 56,115 0 0 0.99 15.71 70.99 0 2.14 4.88 6.07
23:12 Trim Patrick St 3 23.7 56 69,725 0 7.86 0.98 30.79 47.19 5.74 5.43 9.07 9.98
23:12 Trim Market St 3 24.3 53 56,101 0 0 0.98 15.5 69.22 0 1.43 4.37 5.34
23:11 Trim Patrick St 3 23.7 56 69,744 0 6.59 0.94 18.31 51.46 6.68 4.57 9.06 9.96
23:11 Trim Market St 3 24.3 53 56,130 0 0 0.97 14.12 72.74 0 1.43 3.86 5.34
23:10 Trim Patrick St 3 23.7 56 69,772 0 7.06 0.93 20.1 52.27 6.07 4.57 9.05 9.96
23:10 Trim Market St 3 24.3 53 56,154 0 0 0.97 18.02 66.58 0 2.14 4.37 5.34
23:09 Trim Patrick St 3 23.7 56 69,754 0 8.2 0.93 14.3 53.4 6.86 5.43 9.81 10.79
23:09 Trim Market St 3 24.4 53 56,149 0 0 0.94 15.17 69.36 0 1.43 5.39 6.8
23:08 Trim Patrick St 3 23.8 56 69,758 0 8.94 0.92 25.66 51.59 6.77 4.57 9.8 10.78
23:08 Trim Market St 3 24.3 53 56,194 0 0 0.94 14.03 69.71 0 2.14 4.38 6.07